Location: Moscow
(55.7500°N, 37.5830°E)
Time: 16:55:10
(UTC+03:00)

Transit 2A - Pass Details

Date: 02 December 2021
Orbit: 591 x 967 km, 66.7° (Epoch: 17 January)

Event Time Altitude Azimuth Distance (km) Brightness Sun altitude
Rises 11:30:25 0° 309° (NW) 3,665 9.0 11.6°
Reaches altitude 10° 11:34:59 10° 280° (W) 2,706 8.7 11.7°
Maximum altitude 11:37:01 12° 261° (W) 2,572 8.8 11.7°
Drops below altitude 10° 11:39:02 10° 242° (WSW) 2,673 9.1 11.8°
Sets 11:43:29 0° 212° (SSW) 3,555 10.3 11.9°
